map of UBP home
UBP - Airport
Location
City:  Ubon Ratchathani, Ubon Ratchathani, Thailand
ICAO:VTUU
IATA:UBP

Details
Type:Airport (Aerodrome, Airfield)
Use:Public/Civil, Military
Latitude:1515'05"N (15.251278)
Longitude:10452'13"E (104.870231)
Datum:WGS 1984
Elevation:406 ft (124 m)
Variation:0.94W (WMM2015v2 magnetic declination)
-0.04 annual change
Runways:1
Longest:9848 × 148 ft (3002 × 45 m), paved

Time
Time Zone:UTC+7
Local Time:

Weather
METAR:VTUU 041400Z 00000KT 6000 NSC 26/20 Q1012 NOSIG
TAF:VTUU 041100Z 0412/0512 01005KT 7000 NSC
BECMG 0420/0422 6000
BECMG 0501/0503 14007KT 8000

Related Locations
Nearby:
Farthest:SJA: 12449 mi / 20034 km
San Juan de Marcona [San Juan de Marcona Airport], ICA, PE

Find:

   beyond  
but within

Other Information
Maps:
NOTAMs:
Links:
Sources:

  
  • flag of Thailand
  

Sectional Chart

Flight Planning
at skyvector.com

Satellite Image

Google Maps Satellite view

 

Copyright © 2004-2019 Karl L. Swartz. All rights reserved.
The Great Circle Mapper name and logo are trademarks of the Great Circle Mapper.
All other trademarks mentioned herein belong to their respective owners.
Please see credits for attibutions and further copyright information.

  Follow gcmap on Facebook Follow gcmap on Twitter GCmap on LinkedIn

hCard Microformat

Geo Microformat